Location: Pattani
(6.8670°N, 101.2670°E)
Time: 11:46:35
(UTC+07:00)

ISS - Visible Passes

Search period start: 17 November 2018 00:00
Search period end: 27 November 2018 00:00
Orbit: 402 x 408 km, 51.6° (Epoch: 17 November)

Date Brightness Start Highest point End Pass type
(mag) Time Alt. Az. Time Alt. Az. Time Alt. Az.
17 Nov -2.3 19:28:46 10° WSW 19:31:21 34° WNW 19:31:21 34° WNW visible
18 Nov -1.1 05:24:21 10° NNE 05:26:26 16° NE 05:28:31 10° E visible
18 Nov -3.9 18:36:33 10° SSW 18:39:47 70° SE 18:42:07 17° NE visible
19 Nov -0.8 19:23:33 10° WNW 19:24:07 10° NW 19:24:41 10° NW visible
20 Nov -3.5 05:15:58 14° NNW 05:18:42 62° NE 05:21:57 10° SE visible
20 Nov -1.8 18:29:15 10° WSW 18:32:01 25° NW 18:34:46 10° N visible
21 Nov -1.7 04:26:43 22° NE 04:26:43 22° NE 04:29:15 10° ESE visible
22 Nov -2.7 05:10:08 25° W 05:10:52 28° SW 05:13:43 10° S visible
23 Nov -1.5 04:20:47 22° SSE 04:20:47 22° SSE 04:22:05 10° SE visible
